Lexington Weather

Lexington, Massachusetts, USA

54°F
12/10/2019 3:54pm 
  • Lexington Conditions: Light rain, Overcast
  • Temperature: 54.3°F / 12.4°CColder 0.9°F than last hour.
  • Dew Point: 52.7°FDecreased 0.2°Fsince last hour.
  • Relative Humidity: 94%Increased 2.0% since last hour.
  • Wind: Wind from SSW SSW 2 mph, 10-min avg: 4 mph, gust: 8 mph
  • Barometer: 29.68 inFalling 0.02  inHg/hr Falling Slowly
  • Visibility: 10 miles
  • Rain Today: 0.04 in
  •   

Regional Weather Roundup
for Boston / Norton, MA

        
000
ASUS41 KBOX 091700
RWRBOX

REGIONAL WEATHER ROUNDUP
NATIONAL WEATHER SERVICE BOSTON/NORTON MA
1200 PM EST MON DEC 09 2019

NOTE:  "FAIR" INDICATES FEW OR NO CLOUDS BELOW 12,000 FEET WITH NO 
SIGNIFICANT WEATHER AND/OR OBSTRUCTIONS TO VISIBILITY.

MAZALL-091800-
EASTERN MASSACHUSETTS
  
CITY           SKY/WX    TMP DP  RH WIND       PRES   REMARKS
BOSTON         LGT RAIN  49  46  90 SE6       30.08F                  
BEVERLY        RAIN      46  44  93 SE8       30.08F VSB<1/4          
LAWRENCE       RAIN      46  44  93 SE7       30.09F FOG              
BEDFORD        LGT RAIN  46  44  93 SE6       30.06F FOG              
BLUE HILL        N/A     50  49  96 S23G32    30.05F                  
NORWOOD        LGT RAIN  53  49  86 S13G20    30.06F                  
MARSHFIELD     NOT AVBL                                               
PLYMOUTH       NOT AVBL                                               
TAUNTON        LGT RAIN  54  51  90 S12G21    30.09F                  
NEW BEDFORD    LGT RAIN  54  51  90 S16       30.09F                  
$$

MAZALL-091800-
CAPE COD AND THE ISLANDS
  
CITY           SKY/WX    TMP DP  RH WIND       PRES   REMARKS
FALMOUTH       NOT AVBL                                               
HYANNIS        NOT AVBL                                               
CHATHAM        LGT RAIN  50  49  96 S14G23    30.17F FOG              
PROVINCETOWN   LGT RAIN  50  50 100 S20       30.14F FOG              
NANTUCKET      CLOUDY    51  48  89 S13       30.17F                  
MARTHAS VNYRD  LGT RAIN  53  51  93 S15       30.13F FOG              
$$
 
MAZALL-091800-
CENTRAL AND WESTERN MASSACHUSETTS
  
CITY           SKY/WX    TMP DP  RH WIND       PRES   REMARKS
WORCESTER      LGT RAIN  44  43  96 S12       30.01F VSB 1/4          
FITCHBURG      NOT AVBL                                               
ORANGE         RAIN      39  36  89 NW5       30.00F VSB 1/4          
SPRINGFIELD    NOT AVBL                                               
WESTFIELD      RAIN      37  35  92 CALM      30.00F VSB 1            
NORTH ADAMS    LGT RAIN  41  39  93 E10       29.96F FOG              
PITTSFIELD     LGT RAIN  41  39  93 CALM      29.94F VSB 1/4          
$$
 
RIZALL-091800-
RHODE ISLAND
  
CITY           SKY/WX    TMP DP  RH WIND       PRES   REMARKS
PROVIDENCE     LGT RAIN  51  51 100 S14G20    30.08F FOG              
NEWPORT        LGT RAIN  54  51  90 S13G21    30.08F FOG              
BLOCK ISLAND   LGT RAIN  54  52  93 S23       30.08F FOG              
SMITHFIELD     LGT RAIN  51  51 100 S10G21    30.06F                  
WESTERLY       LGT RAIN  56  51  84 S17G25    30.08F                  
$$
 
CTZALL-091800-
CONNECTICUT
  
CITY           SKY/WX    TMP DP  RH WIND       PRES   REMARKS
BRADLEY INTL   LGT RAIN  39  37  92 NW3       30.00F VSB 1/2          
HARTFORD       LGT RAIN  37  37 100 CALM      30.00F VSB 1/2          
BRIDGEPORT     LGT RAIN  54  52  93 S22G31    30.00F FOG              
DANBURY        CLOUDY    52  51  97 S9        29.99F FOG              
GROTON         NOT AVBL                                               
NEW HAVEN      LGT RAIN  57  53  86 S21G30    30.01F FOG              
CHESTER        NOT AVBL                                               
MERIDEN        LGT RAIN  53  51  93 S18G28    29.99F FOG              
WILLIMANTIC    LGT RAIN  52  51  97 S16G23    30.03F FOG              
OXFORD         LGT RAIN  51  51 100 S13G18    29.99F FOG              
$$

MEZ002-015-021-024-NHZ003-005-008-011-012-014-VTZ005-008-091800-
NORTHERN NEW ENGLAND
  
CITY           SKY/WX    TMP DP  RH WIND       PRES   REMARKS
PORTLAND ME    LGT RAIN  40  36  86 CALM      30.13F VSB 1/4          
BANGOR ME      CLOUDY    42  37  82 S3        30.15F                  
CONCORD NH     LGT RAIN  38  38 100 CALM      30.06F VSB 1/2          
MANCHESTER NH  LGT RAIN  41  40  96 CALM      30.05F VSB 1            
NASHUA NH      RAIN      40  40 100 CALM      30.06F VSB 1/4          
PORTSMOUTH NH  NOT AVBL                                               
JAFFREY NH     RAIN      39  37  92 CALM      30.01F VSB 1/4          
KEENE NH       RAIN      38  37  97 NE5       30.01F VSB 3/4          
BURLINGTON VT  CLOUDY    42  34  73 SE8       29.93F                  
MT. WASHINGTON BLWGSNOW  30  30 100 SW39G51     N/A  VSB 0   WCI  13  
$$

NYZ052-076-091800-
EASTERN NEW YORK
  
CITY           SKY/WX    TMP DP  RH WIND       PRES   REMARKS
ALBANY         LGT RAIN  39  36  89 CALM      29.97F FOG              
NEW YORK CITY  CLOUDY    56  52  86 SW15      29.99F                  
$$
 
ANZALL-091800-
MARINE OBSERVATIONS
  
STATION/POSITION TIME  TEMP    WIND        PRES    VSBY  WAVE
                       AIR SEA DIR/SP/G                  HT/PER
                 (UTC) (F)     (DEG/KT/KT) (MB)    (MI)  (FT/S)
BOSTON BUOY      1550   48 47  130/ 14/ 17 1020.1          2/ 4
BUZZARDS BAY     1600   51     160/ 22/ 24 1020.5F
NANTUCKET SOUND  1640   48 43                N/A
MASS BAY-STELLWA 1604   47 46  170/ 14/ 16 1018.7F  1 1/4  3/ 4
ISLE OF SHOALS   1600   45     160/  5/  7 1020.6F
S OF BLOCK IS    1630      52                N/A           6/ 7
$$

......................KEY.........................
  SKY/WX - SKY CONDITION/PRESENT WEATHER
  TMP    - TEMPERATURE IN FAHRENHEIT
  DWPT   - DEWPOINT IN FAHRENHEIT
  RH     - RELATIVE HUMIDITY IN PERCENT
  WIND   - DIRECTION AND SPEED IN MPH
  PRES   - MEAN SEA LEVEL PRESSURE IN INCHES OF HG
  WCI    - WIND CHILL INDEX
  VSB    - VISIBILITY IN MILES
  HX     - HEAT INDEX
  TC     - TEMPERATURE IN CELSIUS
  VRB    - VARIABLE WIND DIRECTION
  N/A    - NOT AVAILABLE
  
      

Other recent Regional Weather Roundups

Tue Dec 10, 3:10pm

Tue Dec 10, 3:01pm

Tue Dec 10, 2:10pm

Tue Dec 10, 2:01pm

Tue Dec 10, 1:10pm

Tue Dec 10, 1:00pm

Tue Dec 10, 12:10pm

Tue Dec 10, 12:00pm

Tue Dec 10, 11:10am

Tue Dec 10, 11:00am

Tue Dec 10, 10:10am

Tue Dec 10, 10:00am

Tue Dec 10, 9:10am

Tue Dec 10, 9:01am

Tue Dec 10, 8:10am

Tue Dec 10, 8:00am

Tue Dec 10, 7:10am

Tue Dec 10, 7:00am

Tue Dec 10, 6:10am

Tue Dec 10, 6:00am

Tue Dec 10, 5:10am

Tue Dec 10, 5:00am

Tue Dec 10, 4:10am

Tue Dec 10, 4:00am

Tue Dec 10, 3:10am

Tue Dec 10, 3:00am

Tue Dec 10, 2:10am

Tue Dec 10, 2:01am

Tue Dec 10, 1:10am

Tue Dec 10, 1:00am

Tue Dec 10, 12:10am

Tue Dec 10, 12:01am

Mon Dec 9, 11:10pm

Mon Dec 9, 11:01pm

Mon Dec 9, 10:10pm

Mon Dec 9, 10:00pm

Mon Dec 9, 9:10pm

Mon Dec 9, 9:01pm

Mon Dec 9, 8:10pm

Mon Dec 9, 8:01pm

Mon Dec 9, 7:10pm

Mon Dec 9, 7:00pm

Mon Dec 9, 6:10pm

Mon Dec 9, 6:00pm

Mon Dec 9, 5:10pm

Mon Dec 9, 5:01pm

Mon Dec 9, 4:10pm

Mon Dec 9, 4:01pm

Mon Dec 9, 3:10pm

Mon Dec 9, 3:01pm

Mon Dec 9, 2:10pm

Mon Dec 9, 2:00pm

Mon Dec 9, 1:10pm

Mon Dec 9, 1:00pm

Mon Dec 9, 12:10pm

Mon Dec 9, 11:10am

Mon Dec 9, 11:00am

Mon Dec 9, 10:10am

Mon Dec 9, 10:00am

Mon Dec 9, 9:10am

Mon Dec 9, 9:00am

Mon Dec 9, 8:10am

Mon Dec 9, 8:00am

Mon Dec 9, 7:10am

Mon Dec 9, 7:00am

Mon Dec 9, 6:10am

Mon Dec 9, 6:00am

Mon Dec 9, 5:10am

Mon Dec 9, 5:00am

Mon Dec 9, 4:10am

Mon Dec 9, 4:00am

Mon Dec 9, 3:10am

Mon Dec 9, 3:00am

Mon Dec 9, 2:10am

Mon Dec 9, 2:00am

Mon Dec 9, 1:10am

Mon Dec 9, 1:00am

Mon Dec 9, 12:10am

Mon Dec 9, 12:00am

Sun Dec 8, 11:10pm

Sun Dec 8, 11:00pm

Sun Dec 8, 10:10pm

Sun Dec 8, 10:01pm

Sun Dec 8, 9:10pm

Sun Dec 8, 9:01pm

Sun Dec 8, 8:10pm

Sun Dec 8, 8:00pm

Sun Dec 8, 7:10pm

Sun Dec 8, 7:00pm

Sun Dec 8, 6:10pm

Sun Dec 8, 6:01pm

Sun Dec 8, 5:10pm

Sun Dec 8, 5:00pm

Sun Dec 8, 4:10pm

Sun Dec 8, 4:01pm

Sun Dec 8, 3:10pm

Sun Dec 8, 3:01pm

Sun Dec 8, 2:10pm

Sun Dec 8, 2:01pm

Sun Dec 8, 1:10pm

Sun Dec 8, 1:00pm

Sun Dec 8, 12:10pm

Sun Dec 8, 12:01pm

Sun Dec 8, 11:10am

Sun Dec 8, 11:00am

Sun Dec 8, 10:10am

Sun Dec 8, 10:01am

Sun Dec 8, 9:10am

Sun Dec 8, 9:00am

Sun Dec 8, 8:10am

Sun Dec 8, 8:00am

Sun Dec 8, 7:10am

Sun Dec 8, 7:00am

Sun Dec 8, 6:10am

Sun Dec 8, 6:00am

Sun Dec 8, 5:10am

Sun Dec 8, 5:00am

Sun Dec 8, 4:10am

Sun Dec 8, 4:00am

Sun Dec 8, 3:10am

Sun Dec 8, 3:00am

Sun Dec 8, 2:10am

Sun Dec 8, 2:00am

Sun Dec 8, 1:10am

Sun Dec 8, 1:00am

Sun Dec 8, 12:10am

Sun Dec 8, 12:01am

Sat Dec 7, 11:10pm

Sat Dec 7, 11:00pm

Sat Dec 7, 10:10pm

Sat Dec 7, 10:00pm

Sat Dec 7, 9:10pm

Sat Dec 7, 9:00pm

Sat Dec 7, 8:10pm

Sat Dec 7, 8:00pm

Sat Dec 7, 7:10pm

Sat Dec 7, 7:00pm

Sat Dec 7, 6:10pm

Sat Dec 7, 6:00pm

Sat Dec 7, 5:10pm

Sat Dec 7, 5:00pm

Sat Dec 7, 4:10pm

Sat Dec 7, 4:00pm

Meta data:

ID: 4b0fe631-89ee-48d8-844a-6b52df9dae14
Link: https://api.weather.gov/products/4b0fe631-89ee-48d8-844a-6b52df9dae14